Marshfield, WI

4:45 PM CDT on July 20, 2017 (GMT -0500)
Marshfield Municipal

Weather History for KMFI - October, 2010

Change the Weather History Date:

Tuesday, October 5, 2010

  Actual Average Record
Temperature  
Mean Temperature 52 °F -  
Max Temperature 68 °F 63 °F 83 °F (1922)
Min Temperature 36 °F 39 °F 18 °F (1952)
Degree Days  
Heating Degree Days 13    
Growing Degree Days 2 (Base 50)    
Moisture  
Dew Point 37 °F    
Average Humidity 64    
Maximum Humidity 93    
Minimum Humidity 32    
Precipitation  
Precipitation 0.00 in - - ()
Sea Level Pressure  
Sea Level Pressure 30.33 in    
Wind  
Wind Speed 2 mph (SW)    
Max Wind Speed 7 mph    
Max Gust Speed -    
Visibility 10 miles    
Events      
Averages and records for this station are not official NWS values.
T = Trace of Precipitation, MM = Missing Value Source: NWS Daily Summary

Daily Weather History Graph

Daily Weather History Graph

Search for Another Location

Airport or City:

Trip Planner

Search our weather history database for the weather conditions in past years. The results will help you decide how hot, cold, wet, or windy it might be!

Date:

Astronomy

Oct. 05, 2010 Rise Set
Actual Time 7:03 AM CDT 6:34 PM CDT
Civil Twilight 6:34 AM CDT 7:03 PM CDT
Nautical Twilight 6:00 AM CDT 7:36 PM CDT
Astronomical Twilight 5:26 AM CDT 8:10 PM CDT
Moon 4:20 AM CDT (10/5) 5:08 PM CDT (10/5)
Length of Visible Light 12h 28m
Length of Day
11h 30m
Waning Crescent, 6% of the Moon is Illuminated
Oct 5
Waning Crescent
Oct 7
New
Oct 14
First Quarter
Oct 22
Full
Oct 30
Last Quarter

Hourly Weather History & Observations

Time (CDT) Temp. Dew Point Humidity Pressure Visibility Wind Dir Wind Speed Gust Speed Precip Events Conditions
12:54 AM 39.0 °F 35.1 °F 86% 30.35 in 10.0 mi Calm Calm - N/A   Clear
1:54 AM 37.9 °F 34.0 °F 86% 30.34 in 10.0 mi Calm Calm - N/A   Clear
2:54 AM 37.9 °F 34.0 °F 86% 30.34 in 10.0 mi Calm Calm - N/A   Clear
3:54 AM 36.0 °F 34.0 °F 93% 30.34 in 10.0 mi Calm Calm - N/A   Clear
4:54 AM 37.0 °F 34.0 °F 89% 30.36 in 10.0 mi Calm Calm - N/A   Clear
5:54 AM 36.0 °F 34.0 °F 93% 30.37 in 10.0 mi Calm Calm - N/A   Clear
6:54 AM 36.0 °F 34.0 °F 93% 30.39 in 10.0 mi Calm Calm - N/A   Clear
7:54 AM 37.9 °F 36.0 °F 93% 30.39 in 10.0 mi Calm Calm - N/A   Clear
8:54 AM 46.9 °F 39.0 °F 74% 30.40 in 10.0 mi South 3.5 mph - N/A   Unknown
9:54 AM 53.1 °F 41.0 °F 64% 30.39 in 10.0 mi WSW 4.6 mph - N/A   Clear
10:54 AM 59.0 °F 39.0 °F 48% 30.39 in 10.0 mi WSW 6.9 mph - N/A   Clear
11:54 AM 62.1 °F 37.9 °F 41% 30.38 in 10.0 mi Variable 5.8 mph - N/A   Clear
12:54 PM 64.9 °F 37.0 °F 36% 30.36 in 10.0 mi SW 6.9 mph - N/A   Clear
1:54 PM 66.9 °F 37.9 °F 34% 30.33 in 10.0 mi Variable 3.5 mph - N/A   Clear
2:54 PM 68.0 °F 37.0 °F 32% 30.30 in 10.0 mi West 4.6 mph - N/A   Clear
3:54 PM 68.0 °F 37.0 °F 32% 30.29 in 10.0 mi West 6.9 mph - N/A   Clear
4:54 PM 66.9 °F 37.0 °F 33% 30.28 in 10.0 mi WSW 4.6 mph - N/A   Clear
5:54 PM 63.0 °F 37.9 °F 40% 30.27 in 10.0 mi SW 3.5 mph - N/A   Clear
6:54 PM 57.9 °F 39.0 °F 49% 30.28 in 10.0 mi SSW 3.5 mph - N/A   Clear
7:54 PM 52.0 °F 37.0 °F 57% 30.28 in 10.0 mi SSW 3.5 mph - N/A   Clear
8:54 PM 50.0 °F 39.0 °F 66% 30.27 in 10.0 mi SSW 3.5 mph - N/A   Clear
9:54 PM 46.9 °F 39.9 °F 77% 30.26 in 7.0 mi Calm Calm - N/A   Clear
10:54 PM 46.9 °F 39.0 °F 74% 30.25 in 10.0 mi SSW 3.5 mph - N/A   Clear
11:54 PM 50.0 °F 39.0 °F 66% 30.24 in 10.0 mi SSW 3.5 mph - N/A   Clear